Mountain Home, Arkansas, United States (72653)
Lat: 36.34N, Lon: 92.39W
Wx Zone: ARZ005
Local Info
Past Weather Observations for Friday, September 26, 2014

NOTE: This archive is for the closest National Weather Service station to Mountain Home. Information may differ from the station used for current weather conditions.

Click here for Long-term Archive

Time Weather Temperature Dewpoint Humidity Pressure Winds Precip Visibility
23:53
Clear
64°F / 18°C 61°F / 16°C 88% 30.15 in
(1021 mb)
Calm - 9SM
22:53
Clear
66°F / 19°C 61°F / 16°C 83% 30.15 in
(1021 mb)
ENE 3.5 mph
(ENE 6 kph)
- 9SM
21:53
Clear
66°F / 19°C 61°F / 16°C 83% 30.15 in
(1021 mb)
ENE 3.5 mph
(ENE 6 kph)
- 9SM
20:53
Clear
70°F / 21°C 59°F / 15°C 69% 30.15 in
(1021 mb)
E 4.6 mph
(E 7 kph)
- 10SM
19:53
Clear
70°F / 21°C 59°F / 15°C 69% 30.15 in
(1021 mb)
ENE 3.5 mph
(ENE 6 kph)
- 10SM
18:53
Clear
68°F / 20°C 59°F / 15°C 73% 30.12 in
(1020 mb)
Calm - 10SM
17:53
Clear
72°F / 22°C 61°F / 16°C 69% 30.12 in
(1020 mb)
Calm - 8SM
16:53
Clear
79°F / 26°C 57°F / 14°C 48% 30.12 in
(1020 mb)
ENE 6.9 mph
(ENE 11 kph)
- 9SM
15:53
Partly Cloudy
81°F / 27°C 57°F / 14°C 45% 30.12 in
(1020 mb)
E 8.1 mph
(E 13 kph)
- 9SM
14:53
Partly Cloudy
82°F / 28°C 57°F / 14°C 42% 30.15 in
(1021 mb)
Variable 5.8 mph
(Variable 9 kph)
- 9SM
13:53
Partly Cloudy
81°F / 27°C 57°F / 14°C 45% 30.15 in
(1021 mb)
E 8.1 mph
(E 13 kph)
- 9SM
12:53
Clear
79°F / 26°C 57°F / 14°C 48% 30.18 in
(1022 mb)
Calm - 9SM
11:53
Partly Cloudy
79°F / 26°C 57°F / 14°C 48% 30.18 in
(1022 mb)
SSE 4.6 mph
(SSE 7 kph)
- 9SM
10:53
Clear
79°F / 26°C 57°F / 14°C 48% 30.21 in
(1023 mb)
Calm - 9SM
09:53
Clear
73°F / 23°C 61°F / 16°C 65% 30.21 in
(1023 mb)
Calm - 9SM
08:53
Clear
66°F / 19°C 63°F / 17°C 88% 30.21 in
(1023 mb)
Calm - 8SM
07:53
Clear
63°F / 17°C 61°F / 16°C 94% 30.21 in
(1023 mb)
Calm - 7SM
06:53
Clear
Fog And Mist
61°F / 16°C 61°F / 16°C 100% 30.21 in
(1023 mb)
Calm - 5SM
05:53
Clear
Fog And Mist
57°F / 14°C 57°F / 14°C 100% 30.18 in
(1022 mb)
Calm - 5SM
04:53
Clear
Fog And Mist
55°F / 13°C 55°F / 13°C 100% 30.18 in
(1022 mb)
Calm - 5SM
03:53
Clear
57°F / 14°C 57°F / 14°C 100% 30.18 in
(1022 mb)
Calm - 8SM
02:53
Clear
57°F / 14°C 57°F / 14°C 100% 30.18 in
(1022 mb)
Calm - 8SM
01:53
Clear
59°F / 15°C 57°F / 14°C 94% 30.18 in
(1022 mb)
Calm - 8SM
00:53
Clear
63°F / 17°C 57°F / 14°C 83% 30.18 in
(1022 mb)
Calm - 10SM
Time Weather Temperature Dewpoint Humidity Pressure Winds Precip Visibility


Weather for websites

WeatherForYou.com, LLC is not responsible for any damages or problems caused by this service. Current weather conditions are obtained from the closest station including government and personal stations which may have varying degrees of accuracy. Weather forecasts are derived from the NOAA NDFD. Like all things, this site belongs to Jesus Christ... He just trusts me to maintain it. If you have any questions or comments email webmaster@weatherforyou.com

Copyright © 2014, WeatherForYou.com LLC. All rights reserved.